This demonstration page uses our WeatherBlox Daily Observations layout. Learn more.

Left ArrowRight Arrow

38.88101, -77.10428

Hourly Observations for October 17, 2022

Temp ( °F °C ) Dew Point ( °F °C ) Humidity (%) Winds ( mph kmh ) Pressure ( in mb ) Visibility ( mi km ) Precip ( " mm )
12:52 am 00:52 Cloudy 59 15 57 13.9 93 93 S 9 15 29.83 1010 10 16 0.00 0.00
1:52 am 01:52 Cloudy 59 15 56 13.3 90 90 SSW 8 13 29.82 1010 10 16 0.00 0.00
2:52 am 02:52 Cloudy 59 15 56 13.3 90 90 S 8 13 29.80 1009 10 16 0.00 0.00
3:23 am 03:23 Cloudy 59 15 57 13.9 93 93 S 7 11 29.79 1009 10 16 0.00 0.00
3:48 am 03:48 Cloudy 59 15 55 13 88 88 S 9 15 29.78 1008 10 16 0.00 0.00
3:52 am 03:52 Cloudy 59 15 56 13.3 90 90 S 12 19 29.77 1008 10 16 0.00 0.00
4:27 am 04:27 Cloudy 58 14.4 56 13.3 93 93 SSW 9 15 29.77 1008 10 16 0.00 0.00
4:52 am 04:52 Cloudy 58 14.4 56 13.3 93 93 SSW 10 17 29.77 1008 10 16 0.00 0.00
4:56 am 04:56 Cloudy 58 14.4 55 12.8 90 90 SSW 8 13 29.77 1008 10 16 0.00 0.00
5:52 am 05:52 Cloudy 58 14.4 56 13.3 93 93 S 7 11 29.75 1007 10 16 0.00 0.00
6:24 am 06:24 Cloudy 58 14.4 56 13.3 93 93 S 6 9 29.75 1007 10 16 0.00 0.00
6:31 am 06:31 Cloudy 58 14.4 56 13.3 93 93 S 9 15 29.75 1007 10 16 0.00 0.00
6:35 am 06:35 Cloudy 58 14.4 56 13.3 93 93 SSW 6 9 29.75 1007 10 16 0.00 0.00
6:40 am 06:40 Cloudy 58 14.4 56 13.3 93 93 SSW 8 13 29.75 1007 10 16 0.00 0.00
6:52 am 06:52 Cloudy 58 14.4 56 13.3 93 93 SW 10 17 29.75 1008 10 16 0.00 0.00
7:02 am 07:02 Cloudy 59 15 55 12.8 87 87 SW 10 17 29.76 1008 10 16 0.00 0.00
7:52 am 07:52 Cloudy 59 15 56 13.3 90 90 SW 7 11 29.75 1008 10 16 0.00 0.00
8:12 am 08:12 Cloudy 59 15 56 13.3 90 90 SSW 10 17 29.75 1007 10 16 0.00 0.00
8:27 am 08:27 Cloudy 59 15 56 13.3 90 90 SSW 13 20 29.75 1007 10 16 0.00 0.00
8:52 am 08:52 Cloudy 60 15.6 57 13.9 90 90 SSW 10 17 29.74 1007 10 16 0.00 0.00
9:52 am 09:52 Cloudy 62 16.7 57 13.9 84 84 SSW 12 19 29.73 1007 10 16 0.00 0.00
10:24 am 10:24 Cloudy 63 17.2 57 13.9 81 81 SSW 14 22 29.72 1006 10 16 0.00 0.00
10:52 am 10:52 Cloudy 65 18.3 57 13.9 76 76 SSW 12 19 29.72 1006 10 16 0.00 0.00
11:45 am 11:45 Cloudy 66 18.9 58 14.4 75 75 S 10 17 29.71 1006 10 16 0.00 0.00
11:52 am 11:52 Cloudy 67 19.4 58 14.4 73 73 S 13 20 29.70 1006 10 16 0.00 0.00
12:07 pm 12:07 Mostly Cloudy 68 20 57 13.9 68 68 SSW 8 13 29.70 1006 10 16 0.00 0.00
12:52 pm 12:52 Cloudy 69 20.6 59 15 70 70 S 12 19 29.67 1005 10 16 0.00 0.00
1:52 pm 13:52 Mostly Cloudy 71 21.7 55 12.8 57 57 SSW 14 22 29.64 1004 10 16 0.00 0.00
2:52 pm 14:52 Mostly Cloudy 69 20.6 54 12.2 59 59 SSW 16 26 29.61 1003 10 16 0.00 0.00
3:52 pm 15:52 Mostly Cloudy with Light Rain 69 20.6 53 11.7 57 57 SSW 13 20 29.60 1002 10 16 0.01 0.13
4:07 pm 16:07 Cloudy with Rain 66 18.9 55 12.8 68 68 SW 12 19 29.60 1002 4 6 0.01 0.25
4:47 pm 16:47 Cloudy with Light Rain 64 18 54 12 68 68 SW 13 20 29.60 1002 8 13 0.03 0.76
4:52 pm 16:52 Cloudy with Light Rain 64 17.8 53 11.7 67 67 WSW 10 17 29.60 1002 10 16 0.03 0.76
5:52 pm 17:52 Mostly Cloudy 65 18.3 54 12.2 68 68 N 10 17 29.60 1002 10 16 0.01 0.13
6:52 pm 18:52 Mostly Cloudy 63 17.2 49 9.4 60 60 N 7 11 29.62 1003 10 16 0.00 0.00
7:52 pm 19:52 Mostly Cloudy 60 15.6 50 10 69 69 N 7 11 29.63 1004 10 16 0.00 0.00
8:52 pm 20:52 Mostly Cloudy 58 14.4 41 5 53 53 NNW 20 31 29.66 1004 10 16 0.00 0.00
9:52 pm 21:52 Mostly Cloudy 57 13.9 38 3.3 49 49 NNW 13 20 29.67 1005 10 16 0.00 0.00
10:52 pm 22:52 Mostly Cloudy 54 12.2 36 2.2 50 50 NNW 12 19 29.70 1006 10 16 0.00 0.00
11:52 pm 23:52 Cloudy 53 11.7 35 1.7 50 50 NNW 9 15 29.70 1006 10 16 0.00 0.00

Powered by AerisWeather